Powrót do katalogu

FENGYUN 1C DEB

AktywnySSO
NORAD 30270·DEBRIS·🇨🇳 China

Wystrzelony May 10, 1999 z Taiyuan Satellite Launch Center

Loading…

Następne Przeloty (najbliższe 24 godziny)

TLE

ŚwieżeSource: Space-Track

Epoka: Sep 14, 2026, 06:55 UTC

1 30270U 99025YF  26257.28858978  .00000047  00000-0  49445-4 0  9995
2 30270  98.6953 267.4714 0008217 102.1325 323.3606 14.11380218 12473

Śledź FENGYUN 1C DEB w czasie rzeczywistym z AllMySat

Download on the App Store